[[{"header":{"parameterUnit":"m.s-1","parameterCategory":1,"la1":30.2991,"la2":30.254,"lo1":-89.0895,"lo2":-89.0444,"dy":0.0017,"dx":0.0017,"nx":28,"ny":28,"refTime":"2024-02-13T03:00:00:Z","depth":0,"parameterNumber":2,"parameterNumberName":"U-component_of_WINDS"},"data":[0,0,0,0,0,0,0,0,0,0,0,0,0,0,0,0,0,0,0,0,0,0,0,0,0,0,0,0,0,0,0,0,0,0,0,0,0,0,0,0,0,0,0,0,0,0,0,0,0,0,0,0,0,0,0,0,0,0,-2.8241,-2.8242,0,-2.835,-2.8351,-2.8353,-2.827,-2.8266,-2.8263,-2.8259,-2.8372,-2.8378,-2.8384,0,0,0,0,0,0,0,0,0,0,0,0,0,-2.796,-2.7966,-2.8241,-2.8242,-2.8243,-2.835,-2.8351,-2.8353,-2.827,-2.8266,-2.8262,-2.8258,-2.837,-2.8377,-2.8385,0,0,0,0,0,0,0,0,0,0,0,0,0,-2.8077,-2.7968,-2.824,-2.8215,-2.8214,-2.835,-2.8351,-2.8353,-2.8271,-2.8266,-2.8261,-2.8255,-2.8367,-2.8377,-2.8386,-2.8553,0,0,-2.8415,-2.8419,0,0,0,0,0,0,0,0,-2.8071,-2.8087,-2.8217,-2.8217,-2.8216,-2.8291,-2.8294,-2.842,-2.8273,-2.825,-2.8259,-2.8253,-2.8349,-2.836,-2.8392,-2.8558,-2.8563,-2.8416,-2.8422,-2.8426,-2.8429,0,0,0,0,0,0,0,-2.8063,-2.8082,-2.8284,-2.8219,-2.8219,-2.8198,-2.8209,-2.8317,-2.8328,-2.8251,-2.8245,-2.8259,-2.8348,-2.8383,-2.8394,-2.8565,-2.8416,-2.8424,-2.843,-2.8434,-2.8872,-2.8878,0,0,0,0,0,0,-2.8057,-2.8076,-2.828,-2.8287,-2.8128,-2.8208,-2.8219,-2.8272,-2.8327,-2.833,-2.8264,-2.8255,-2.837,-2.8383,-2.8398,-2.8597,-2.8426,-2.8435,-2.844,-2.8866,-2.8873,-2.888,0,0,0,0,0,0,-2.8051,-2.8076,-2.8276,-2.818,-2.8204,-2.8218,-2.8278,-2.8277,-2.8313,-2.8337,-2.8338,-2.8298,-2.8366,-2.8385,-2.8515,-2.8599,-2.8439,-2.8448,-2.8859,-2.8868,-2.8876,-2.8995,0,0,0,0,0,0,-2.8043,-2.8074,-2.8138,-2.8182,-2.8209,-2.8391,-2.8283,-2.8283,-2.8329,-2.8319,-2.8369,-2.8372,-2.8363,-2.8501,-2.8524,-2.861,-2.8455,-2.8852,-2.8863,-2.8874,-2.8984,-2.9007,-2.9027,0,0,0,0,0,-2.8034,-2.8167,-2.8142,-2.8167,-2.8289,-2.8396,-2.8412,-2.8399,-2.8336,-2.84,-2.8416,-2.8371,-2.8586,-2.8515,-2.8541,-2.863,-2.8846,-2.886,-2.8873,-2.8974,-2.9003,-2.9026,0,0,0,0,0,0,-2.8133,-2.8173,-2.8145,-2.8296,-2.8344,-2.8382,-2.8462,-2.8429,-2.8495,-2.8483,-2.8463,-2.8475,-2.8612,-2.8634,-2.8554,-2.8794,-2.8706,-2.8725,-2.8775,-2.8802,-2.8823,-2.8815,-2.8463,0,0,0,0,0,-2.8173,-2.8256,-2.8286,-2.8417,-2.8442,-2.8449,-2.8495,-2.848,-2.8528,-2.8548,-2.8573,-2.8621,-2.87,-2.8752,-2.8825,-2.8986,-2.8996,-2.906,-2.9082,-2.91,-2.9116,-2.9202,-2.9231,-2.8923,-2.8923,-2.8923,0,0,-2.8255,-2.8287,-2.8341,-2.8438,-2.8473,-2.856,-2.8466,-2.8562,-2.8626,-2.8563,-2.8687,-2.8707,-2.8759,-2.8906,-2.8971,-2.8928,-2.9203,-2.9117,-2.913,-2.9138,-2.9219,-2.9248,-2.9274,-2.8932,-2.8931,-2.8929,0,0,-2.845,-2.8483,-2.8595,-2.8632,-2.8686,-2.8689,-2.8716,-2.876,-2.8771,-2.8895,-2.8849,-2.8925,-2.906,-2.91,-2.9137,-2.9347,-2.9308,-2.9371,-2.9484,-2.9568,-2.9592,-2.9614,-2.9688,-2.9715,-2.9388,-2.9388,-2.9388,0,-2.8546,-2.8675,-2.8658,-2.8757,-2.8801,-2.8747,-2.8861,-2.8897,-2.8972,-2.9004,-2.8954,-2.9123,-2.9155,-2.9309,-2.936,-2.9392,-2.9422,-2.9365,-2.959,-2.9611,-2.9631,-2.9702,-2.973,-2.9395,-2.9394,-2.9394,-2.9393,0,-2.879,-2.8881,-2.8965,-2.9039,-2.9092,-2.9198,-2.9197,-2.9253,-2.9233,-2.9242,-2.9369,-2.9405,-2.9484,-2.952,-2.9502,-2.9672,-2.9643,-2.9593,-2.9504,-2.9668,-2.9734,-2.9761,-2.9406,-2.9403,-2.9401,-2.9399,0,0,-2.9052,-2.9114,-2.9145,-2.9177,-2.9232,-2.9302,-2.9405,-2.9483,-2.9531,-2.9585,-2.9671,-2.9786,-2.9739,-2.9782,-2.9769,-2.9843,-3.0005,-2.9782,-2.9783,-2.9822,-3.0194,-3.0231,-3.0263,-2.998,-2.9985,-2.9989,-3.0189,0,-2.9249,-2.9429,-2.9416,-2.9586,-2.9669,-2.9618,-2.9708,-2.9752,-2.9762,-2.9834,-2.9845,-2.9927,-2.9859,-2.9885,-2.9956,-2.9971,-3.008,-2.9956,-3.0059,-3.0063,-3.0048,-3.0297,-3.0338,-3.0525,-3.0215,-3.0219,-3.0222,0,-2.9504,-2.9565,-2.9744,-2.9785,-2.982,-2.9901,-2.997,-3.004,-3.0088,-3.009,-3.0138,-3.0111,-3.0215,-3.0124,-3.0267,-3.0183,-3.0225,-3.0238,-3.0245,-3.0254,-3.0153,-3.0313,-3.0584,-3.0612,-3.0263,-3.0259,-3.0257,0,-2.9676,-2.9804,-2.9927,-2.9956,-3.0008,-3.0066,-3.0091,-3.0133,-3.018,-3.0241,-3.0271,-3.0344,-3.0384,-3.044,-3.0434,-3.0368,-3.0579,-3.0487,-3.0583,-3.0584,-3.063,-3.0627,-3.0912,-3.0658,-3.0657,-3.0657,-3.0656,0,-2.9898,-3.0008,-3.0005,-3.008,-3.0203,-3.0186,-3.0308,-3.0326,-3.0364,-3.0442,-3.0403,-3.0477,-3.0464,-3.0538,-3.0533,-3.0652,-3.067,-3.0675,-3.0672,-3.0678,-3.0678,-3.0705,-3.0692,-3.0664,-3.0662,-3.0661,-3.066,0,-3.0111,-3.0113,-3.0243,-3.0282,-3.0294,-3.0382,-3.0415,-3.0486,-3.0493,-3.0592,-3.0614,-3.0625,-3.071,-3.0709,-3.0806,-3.0803,-3.0948,-3.0931,-3.0932,-3.0929,-3.1024,-3.1015,-3.1336,-3.1377,-3.1097,-3.11,-3.1102,0,-3.0252,-3.0336,-3.0383,-3.0433,-3.0461,-3.0541,-3.0588,-3.0575,-3.0627,-3.0687,-3.0751,-3.0832,-3.0896,-3.1034,-3.1051,-3.1124,-3.1108,-3.1216,-3.1119,-3.1122,-3.1109,-3.1104,-3.1112,-3.1235,-3.1238,-3.124,-3.1243,0,-3.0503,-3.0499,-3.0569,-3.0641,-3.0699,-3.0754,-3.0805,-3.0847,-3.084,-3.09,-3.0986,-3.1035,-3.1134,-3.1215,-3.1286,-3.131,-3.1276,-3.1273,-3.1299,-3.1306,-3.1302,-3.1305,-3.0983,-3.1265,-3.1263,-3.1261,-3.126,-3.1259,-3.0684,-3.0756,-3.08,-3.088,-3.0916,-3.0965,-3.1033,-3.1048,-3.112,-3.1199,-3.1187,-3.1283,-3.1328,-3.1419,-3.145,-3.1525,-3.1487,-3.1525,-3.1535,-3.1544,-3.1554,-3.1291,-3.1538,-3.1537,-3.1537,-3.1536,-3.1536,0,-3.0932,-3.0958,-3.1031,-3.1103,-3.1166,-3.1127,-3.1181,-3.1236,-3.1321,-3.1366,-3.1429,-3.1528,-3.1606,-3.1628,-3.1703,-3.1759,-3.1745,-3.1779,-3.1775,-3.1781,-3.1584,-3.1554,-3.1789,-3.1789,-3.1789,-3.1789,-3.1789,-3.1789,-3.1068,-3.1188,-3.119,-3.1327,-3.1351,-3.1445,-3.1479,-3.1523,-3.1559,-3.1671,-3.1735,-3.1749,-3.1785,-3.1862,-3.1932,-3.1936,-3.1965,-3.2006,-3.2004,-3.182,-3.1795,-3.177,-3.1742,-3.2013,-3.2013,-3.2194,-3.2196,-3.2197]},{"header":{"parameterUnit":"m.s-1","parameterCategory":1,"la1":30.2991,"la2":30.254,"lo1":-89.0895,"lo2":-89.0444,"dy":0.0017,"dx":0.0017,"nx":28,"ny":28,"refTime":"2024-02-13T03:00:00:Z","depth":0,"parameterNumber":3,"parameterNumberName":"V-component_of_WINDS"},"data":[0,0,0,0,0,0,0,0,0,0,0,0,0,0,0,0,0,0,0,0,0,0,0,0,0,0,0,0,0,0,0,0,0,0,0,0,0,0,0,0,0,0,0,0,0,0,0,0,0,0,0,0,0,0,0,0,0,0,-2.442,-2.4421,0,-2.4501,-2.4502,-2.4502,-2.4485,-2.4484,-2.4483,-2.4481,-2.4562,-2.4566,-2.4569,0,0,0,0,0,0,0,0,0,0,0,0,0,-2.4251,-2.4254,-2.442,-2.4421,-2.4422,-2.45,-2.4502,-2.4503,-2.4486,-2.4484,-2.4482,-2.448,-2.4561,-2.4565,-2.457,0,0,0,0,0,0,0,0,0,0,0,0,0,-2.4327,-2.4255,-2.442,-2.4423,-2.4425,-2.45,-2.4502,-2.4503,-2.4486,-2.4484,-2.4482,-2.448,-2.456,-2.4565,-2.457,-2.4647,0,0,-2.4586,-2.4589,0,0,0,0,0,0,0,0,-2.4323,-2.4334,-2.4422,-2.4423,-2.4425,-2.4481,-2.4472,-2.4551,-2.4487,-2.4463,-2.4481,-2.4479,-2.4537,-2.4544,-2.4564,-2.4651,-2.4655,-2.4587,-2.459,-2.4592,-2.4594,0,0,0,0,0,0,0,-2.4318,-2.433,-2.4452,-2.4423,-2.4425,-2.442,-2.4429,-2.4487,-2.4511,-2.4465,-2.4464,-2.4473,-2.4537,-2.4559,-2.4566,-2.4656,-2.4587,-2.4591,-2.4595,-2.4597,-2.481,-2.4812,0,0,0,0,0,0,-2.4311,-2.4326,-2.445,-2.4454,-2.4367,-2.4425,-2.4435,-2.4465,-2.4511,-2.4515,-2.4475,-2.4472,-2.4551,-2.4559,-2.4568,-2.4661,-2.4592,-2.4597,-2.46,-2.4807,-2.481,-2.4813,0,0,0,0,0,0,-2.4308,-2.4323,-2.4446,-2.439,-2.4405,-2.443,-2.4465,-2.4468,-2.4489,-2.4519,-2.4523,-2.4493,-2.4549,-2.4561,-2.4628,-2.4664,-2.46,-2.4605,-2.4804,-2.4808,-2.4812,-2.4848,0,0,0,0,0,0,-2.4303,-2.4322,-2.4352,-2.4391,-2.4408,-2.4505,-2.4467,-2.4471,-2.4499,-2.4496,-2.4536,-2.4541,-2.4549,-2.462,-2.4633,-2.467,-2.4609,-2.4801,-2.4806,-2.481,-2.4844,-2.4853,-2.486,0,0,0,0,0,-2.4297,-2.4359,-2.4353,-2.4368,-2.4447,-2.4507,-2.4517,-2.4525,-2.4502,-2.4532,-2.455,-2.454,-2.4658,-2.4627,-2.4642,-2.4681,-2.4799,-2.4805,-2.481,-2.484,-2.4851,-2.486,0,0,0,0,0,0,-2.4323,-2.4364,-2.4358,-2.4434,-2.4467,-2.4504,-2.4542,-2.4536,-2.4576,-2.4572,-2.458,-2.4589,-2.4657,-2.4675,-2.464,-2.4757,-2.4725,-2.4734,-2.4743,-2.4753,-2.4761,-2.4755,-2.4613,0,0,0,0,0,-2.4337,-2.4384,-2.4417,-2.4481,-2.4497,-2.4517,-2.4544,-2.4547,-2.4581,-2.4595,-2.4619,-2.4652,-2.4697,-2.4726,-2.4769,-2.4846,-2.4855,-2.488,-2.4889,-2.4895,-2.4903,-2.4944,-2.4956,-2.4831,-2.4831,-2.4831,0,0,-2.4368,-2.4396,-2.4425,-2.4486,-2.4512,-2.4559,-2.4529,-2.458,-2.4615,-2.4603,-2.4667,-2.4686,-2.4724,-2.4796,-2.4829,-2.4814,-2.4939,-2.4902,-2.4907,-2.4911,-2.4951,-2.4963,-2.4973,-2.4835,-2.4834,-2.4834,0,0,-2.4447,-2.4474,-2.4529,-2.4556,-2.4596,-2.4608,-2.4622,-2.4659,-2.4671,-2.4736,-2.4728,-2.4769,-2.4846,-2.4873,-2.4897,-2.4986,-2.4977,-2.5,-2.5042,-2.5083,-2.5092,-2.5101,-2.5132,-2.5144,-2.5007,-2.5007,-2.5007,0,-2.448,-2.4551,-2.4559,-2.4611,-2.4638,-2.4629,-2.4685,-2.471,-2.4762,-2.4781,-2.4763,-2.4859,-2.4884,-2.4962,-2.4983,-2.5003,-2.5018,-2.4995,-2.5091,-2.5099,-2.5108,-2.5137,-2.5149,-2.5009,-2.5009,-2.5009,-2.5009,0,-2.4589,-2.4639,-2.4679,-2.4729,-2.476,-2.4814,-2.4829,-2.486,-2.4861,-2.4875,-2.4941,-2.497,-2.5018,-2.5037,-2.5038,-2.5115,-2.5104,-2.5089,-2.5056,-2.5122,-2.515,-2.5161,-2.5013,-2.5012,-2.5011,-2.5011,0,0,-2.4687,-2.4741,-2.4755,-2.4778,-2.482,-2.4858,-2.4911,-2.4959,-2.4985,-2.5021,-2.5065,-2.513,-2.5115,-2.5142,-2.5146,-2.5182,-2.5249,-2.5161,-2.5162,-2.5176,-2.5336,-2.5347,-2.536,-2.5244,-2.5246,-2.5248,-2.5332,0,-2.477,-2.4864,-2.4872,-2.4957,-2.5002,-2.4994,-2.504,-2.5071,-2.5086,-2.5126,-2.5141,-2.5187,-2.5165,-2.5181,-2.5216,-2.5234,-2.5282,-2.5228,-2.5285,-2.5287,-2.5275,-2.5375,-2.5388,-2.5466,-2.5343,-2.5345,-2.5347,0,-2.488,-2.4919,-2.5008,-2.5044,-2.5063,-2.5104,-2.5148,-2.5187,-2.5221,-2.5229,-2.5259,-2.5258,-2.5312,-2.5277,-2.5351,-2.5315,-2.5338,-2.5351,-2.5354,-2.5359,-2.532,-2.5383,-2.5491,-2.5503,-2.5364,-2.5363,-2.5362,0,-2.4942,-2.5017,-2.5079,-2.5099,-2.5142,-2.5172,-2.5191,-2.5223,-2.5251,-2.5289,-2.5307,-2.5351,-2.5375,-2.5408,-2.5419,-2.5393,-2.5492,-2.5459,-2.55,-2.5499,-2.5521,-2.5519,-2.5634,-2.5537,-2.5536,-2.5536,-2.5536,0,-2.5034,-2.5088,-2.5108,-2.5146,-2.5207,-2.5215,-2.5275,-2.5292,-2.5321,-2.5362,-2.5358,-2.5397,-2.5408,-2.5449,-2.5457,-2.5517,-2.5528,-2.5535,-2.5537,-2.5536,-2.5535,-2.5551,-2.5546,-2.5539,-2.5539,-2.5538,-2.5538,0,-2.5113,-2.5129,-2.5196,-2.5232,-2.5242,-2.5285,-2.5315,-2.5352,-2.5366,-2.5418,-2.5431,-2.5452,-2.55,-2.5513,-2.557,-2.5576,-2.5646,-2.5642,-2.5634,-2.5634,-2.5674,-2.567,-2.5803,-2.5821,-2.5712,-2.5713,-2.5714,0,-2.5171,-2.5213,-2.5253,-2.528,-2.5301,-2.5345,-2.5373,-2.5383,-2.5412,-2.5454,-2.5486,-2.5533,-2.5571,-2.5647,-2.5667,-2.5711,-2.5708,-2.5752,-2.5715,-2.5712,-2.5708,-2.5706,-2.5709,-2.5759,-2.576,-2.5761,-2.5762,0,-2.5271,-2.5276,-2.5317,-2.5361,-2.5395,-2.543,-2.5463,-2.5485,-2.55,-2.5533,-2.5581,-2.5611,-2.5669,-2.5715,-2.5759,-2.5778,-2.5772,-2.5773,-2.5785,-2.5784,-2.5777,-2.5781,-2.5653,-2.577,-2.5769,-2.5769,-2.5768,-2.5768,-2.5341,-2.5377,-2.5411,-2.5457,-2.5483,-2.5514,-2.555,-2.5568,-2.5609,-2.5657,-2.566,-2.5712,-2.5745,-2.5803,-2.5825,-2.5866,-2.5853,-2.587,-2.5874,-2.5878,-2.5881,-2.5771,-2.5874,-2.5874,-2.5873,-2.5873,-2.5873,0,-2.544,-2.5462,-2.5503,-2.555,-2.5586,-2.5577,-2.5613,-2.5644,-2.569,-2.5721,-2.5759,-2.5814,-2.5859,-2.5883,-2.5927,-2.5955,-2.5953,-2.5966,-2.5964,-2.5969,-2.5891,-2.5876,-2.5967,-2.5967,-2.5967,-2.5967,-2.5967,-2.5967,-2.5496,-2.5557,-2.5567,-2.564,-2.5661,-2.5712,-2.5734,-2.5762,-2.5787,-2.5849,-2.5886,-2.5901,-2.5929,-2.5976,-2.6016,-2.6022,-2.6038,-2.6053,-2.6057,-2.5984,-2.5974,-2.5965,-2.5951,-2.6056,-2.6057,-2.6131,-2.6132,-2.6133]}]]